Hauptseite
METAR-TAF:

METAR-TAF

Flughäfen :

Militärflugplatz Deelen

Arnheim, Niederlande

Breite: 52-04N, Länge: 005-53E, Höhe: 48 m

Beobachtung

Neuester Wetterbericht von vor 15 Minuten, um 13:25 UTC
Wind 10 kt aus Süd/Südwest, variierte zwischen Süd/Südost und West/Südwest
Temperatur 23°C
Luftfeuchtigkeit 50%
Luftdruck 1012 hPa
Sichtweite 10 km oder mehr

METAR: EHDL 151325Z AUTO 21010KT 150V250 9999 NCD 23/12 Q1012 BLU

Zeit: 15:40 (13:40 UTC)


TAF: fehlend

Wetterbeobachtungen und Prognosen von mehr als 4000 Flughäfen (METAR und TAF Bericht).

Die verfügbaren Stationen werden durch gelbe und rote Markierungen auf der Karte dargestellt.

Führen Sie die Maus auf sie, um den Namen der Station zu sehen.

Darauf klicken, um die Beobachtung von Wetterbeobachtungen und Prognosen zu sehen.

Um die Karte zu ändern : klicken Sie auf den grünen Tasten mit einem schwarzen Kreuz Zum Vergrößern, auf den grünen Button mit einem Gedankenstrich zu verkleinern, oder auf die grünen Pfeile für benachbarte Karten.


METAR-TAF: